GRUS-1C (47933 NORAD) Tracking and Keplerian Element Data

This shows tracking and keplerian element data for the satellite.

Feedback or suggestion? Click here.




ElementValue
Catalog47933
NameGRUS-1C
Epoch Orbit1365
Epoch Day172.81029737
Epoch Year2021
RAAN75.2485
Inclination97.7233
Eccentricity0.0018841
Argument of Perigee300.2505
Mean Anonmoly59.7129
Mean Motion14.93083477
Decay Rate0
L11 47933U 21022B 21172.81029737 -.00000000 00000-0 54319-5 0 9991
L22 47933 97.7233 75.2485 0018841 300.2505 59.7129 14.93083477 13651

Live tracking and technical data element details for GRUS-1C (NORAD 47933). GRUS-1C can be tracked NOW for your location showing map with azimuth and elevation plus other details from your city location.

Track the satellite on the map from your city or location and see movement details for azimuth, elevation, latitude, longitude, range, height, and movement on the map or in text.







IsCatalogInMostPopularTable: catalog: 47933, numindb: 39
Update: records affected: 1



GetName: 47933 GRUS-1C

Hit Count: updated at: Thu, 24 Jun 2021 03:29:50 GMT